This demonstration page uses our WeatherBlox Daily Observations layout. Learn more.

Left ArrowRight Arrow

44.8408, -93.29828

Hourly Observations for September 28, 2021

Temp ( °F °C ) Dew Point ( °F °C ) Humidity (%) Winds ( mph kmh ) Pressure ( in mb ) Visibility ( mi km ) Precip ( " mm )
12:53 am 00:53 Clear 60 15.6 48 8.9 65 65 SE 5 7 29.92 1013 10 16 0.00 0.00
1:53 am 01:53 Clear 59 15 48 8.9 67 67 SE 6 9 29.91 1013 10 16 0.00 0.00
2:53 am 02:53 Clear 58 14.4 49 9.4 72 72 SE 6 9 29.91 1013 10 16 0.00 0.00
3:53 am 03:53 Clear 58 14.4 50 10 75 75 SE 6 9 29.91 1013 10 16 0.00 0.00
4:53 am 04:53 Clear 57 13.9 50 10 78 78 SE 6 9 29.93 1013 10 16 0.00 0.00
5:53 am 05:53 Clear 56 13.3 51 10.6 84 84 SE 6 9 29.93 1014 10 16 0.00 0.00
6:53 am 06:53 Clear 56 13.3 51 10.6 84 84 SE 6 9 29.94 1014 10 16 0.00 0.00
7:53 am 07:53 Sunny 57 13.9 53 11.7 87 87 SE 7 11 29.96 1015 10 16 0.00 0.00
8:53 am 08:53 Sunny 59 15 53 11.7 81 81 SSE 8 13 29.97 1015 10 16 0.00 0.00
9:53 am 09:53 Sunny 64 17.8 51 10.6 63 63 SSE 9 15 29.96 1015 10 16 0.00 0.00
10:53 am 10:53 Sunny 68 20 52 11.1 57 57 S 12 19 29.96 1015 10 16 0.00 0.00
11:53 am 11:53 Sunny 72 22.2 53 11.7 52 52 SSE 12 19 29.95 1014 10 16 0.00 0.00
12:53 pm 12:53 Sunny 75 23.9 54 12.2 48 48 S 9 15 29.93 1014 10 16 0.00 0.00
1:53 pm 13:53 Sunny 78 25.6 54 12.2 43 43 SE 9 15 29.91 1013 10 16 0.00 0.00
2:53 pm 14:53 Mostly Sunny 80 26.7 55 12.8 42 42 SE 13 20 29.89 1012 10 16 0.00 0.00
3:53 pm 15:53 Mostly Sunny 81 27.2 55 12.8 41 41 SSE 16 26 29.88 1012 10 16 0.00 0.00
4:53 pm 16:53 Mostly Sunny 81 27.2 54 12.2 39 39 SE 8 13 29.88 1012 10 16 0.00 0.00
5:53 pm 17:53 Mostly Sunny 79 26.1 54 12.2 42 42 SE 9 15 29.86 1011 10 16 0.00 0.00
6:53 pm 18:53 Mostly Sunny 75 23.9 54 12.2 48 48 SE 10 17 29.87 1012 10 16 0.00 0.00
7:53 pm 19:53 Mostly Clear 72 22.2 54 12.2 53 53 SE 9 15 29.89 1012 10 16 0.00 0.00
8:53 pm 20:53 Mostly Clear 69 20.6 55 12.8 61 61 SE 12 19 29.90 1012 10 16 0.00 0.00
9:53 pm 21:53 Mostly Clear 67 19.4 53 11.7 61 61 SE 9 15 29.91 1013 10 16 0.00 0.00
10:53 pm 22:53 Mostly Clear 65 18.3 52 11.1 63 63 SE 7 11 29.91 1013 10 16 0.00 0.00
11:53 pm 23:53 Mostly Clear 64 17.8 51 10.6 63 63 SSE 6 9 29.91 1013 10 16 0.00 0.00

Powered by AerisWeather